{"data":{"norad_id":62218,"intl_designator":"2024-231A","name":"STARLINK-11394 [DTC]","alt_names":[],"object_type":"PAYLOAD","status":"ACTIVE","operator":null,"country":"US","launch_date":"2024-12-05","launch_site_code":"AFWTR","launch_vehicle":null,"mission":null,"orbit_class":"UNKNOWN","rcs_meters":null,"size_class":null,"mass_kg":null,"dimensions":null,"purposes":["comms"],"wikipedia_slug":null,"has_3d_model":false,"image_url":null,"decayed_at":null,"tle_current":{"epoch":"2026-09-21T11:42:02.433888Z","epoch_age_seconds":92393,"freshness":"FRESH","line1":"1 62218U 24231A   26264.48752817  .00165091  00000+0  13381-2 0  9992","line2":"2 62218  53.1571 216.0638 0000999  93.2091 266.9041 15.69754596104167","mean_motion":15.69754596,"eccentricity":9.99e-5,"inclination_deg":53.1571,"raan_deg":216.0638,"arg_perigee_deg":93.2091,"mean_anomaly_deg":266.9041,"bstar":0.0013381,"rev_number":10416,"period_min":91.734084019844,"perigee_km":358.92603691945,"apogee_km":360.27223659957,"semimajor_km":6737.7361367595,"source":"CELESTRAK","updated_at":"2026-09-22T09:00:49.544047Z"}}}